User: anonymous   Login
Location: Unspecified
(0.0000°N, 0.0000°E)
Time: 03:01:08
(UTC+00:00)
Language:

TBA - TO BE ASSIGNED - Orbit

View from above orbital plane
View from above orbital plane
View from above satellite
View from above satellite

Ground track
Ground track

The orbit is defined by the following mean orbital elements,

1 67613U          26145.62735520 +.00000000 +00000-0 +57349-5 0 00007
2 67613  97.2852 210.7231 0002325 266.2478  93.8499 15.33455910    09
Epoch (UTC): 25 May 2026 15:03:23
Eccentricity: 0.0002325
inclination: 97.2852°
perigee height: 464 km
apogee height: 467 km
right ascension of ascending node: 210.7231°
argument of perigee: 266.2478°
revolutions per day: 15.33455910
mean anomaly at epoch: 93.8499°

The dashed part of the orbit path shows where the satellite is in the earth's shadow,  

DLR